Hourly Data Report for June 06, 2004

TORONTO CITY
ONTARIO

43°40'00.000" N
79°24'00.000" W
112.50 m
6158355
71508
XTO

Download Data

Hourly Data (June 2004)
Hourly Data Report for June 6, 2004
TIME
LST
Temp Definition
°C
Dew Point Definition
°C
Rel Hum Definition
%
Precip. Amount Definition
mm

Wind Dir Definition
10's deg

Wind Spd Definition
km/h
Visibility Definition
km
Stn Press Definition
kPa
Hmdx Definition


Wind Chill Definition


Weather Definition


00:00 14.3 11.4 83   LegendMM LegendMM LegendMM 100.43     LegendNANA
01:00 13.5 11.7 89   LegendMM LegendMM LegendMM 100.38     LegendNANA
02:00 14.1 12.4 89   LegendMM LegendMM LegendMM 100.36     LegendNANA
03:00 15.0 12.9 87   LegendMM LegendMM LegendMM 100.33     LegendNANA
04:00 14.9 12.9 88   LegendMM LegendMM LegendMM 100.33     LegendNANA
05:00 15.0 12.9 87   LegendMM LegendMM LegendMM 100.39     LegendNANA
06:00 15.1 13.0 87   LegendMM LegendMM LegendMM 100.42     LegendNANA
07:00 15.2 12.8 86   LegendMM LegendMM LegendMM 100.45     LegendNANA
08:00 15.8 13.1 84   LegendMM LegendMM LegendMM 100.44     LegendNANA
09:00 16.6 13.8 84   LegendMM LegendMM LegendMM 100.40     LegendNANA
10:00 17.6 13.8 78   LegendMM LegendMM LegendMM 100.37     LegendNANA
11:00 18.4 13.9 75   LegendMM LegendMM LegendMM 100.34     LegendNANA
12:00 19.2 14.4 74   LegendMM LegendMM LegendMM 100.31     LegendNANA
13:00 19.7 14.4 71   LegendMM LegendMM LegendMM 100.25     LegendNANA
14:00 20.6 14.5 68   LegendMM LegendMM LegendMM 100.24     LegendNANA
15:00 20.3 15.0 72   LegendMM LegendMM LegendMM 100.20     LegendNANA
16:00 19.3 14.1 72   LegendMM LegendMM LegendMM 100.17     LegendNANA
17:00 18.3 13.5 74   LegendMM LegendMM LegendMM 100.17     LegendNANA
18:00 16.7 12.9 78   LegendMM LegendMM LegendMM 100.14     LegendNANA
19:00 16.6 12.9 79   LegendMM LegendMM LegendMM 100.14     LegendNANA
20:00 16.6 12.9 79   LegendMM LegendMM LegendMM 100.12     LegendNANA
21:00 16.2 12.8 80   LegendMM LegendMM LegendMM 100.15     LegendNANA
22:00 16.5 13.4 82   LegendMM LegendMM LegendMM 100.18     LegendNANA
23:00 17.0 13.8 81   LegendMM LegendMM LegendMM 100.20     LegendNANA

Notes on Data Quality.

Legend

  • E = Estimated
  • M = Missing
  • NA = Not Available*
  • [empty] = Indicates an unobserved value
Date modified: